Flag for Switzerland Weather past 2 weeks in Mendrisio, Ticino, Switzerland

Now
59 °F

Cool.


Feels Like: 59 °F
Forecast: 38 / 52 °F
Wind: 1 mph from Southwest

Location: Stabio

Current Time: Oct 21, 2014 at 2:48:26 AM

Latest Report: Oct 21, 2014 at 2:00 AM


Visibility: N/A

Pressure: 30.03 "Hg

Humidity: 96%

Dew point: 58 °F

Location of MendrisioLocation

Historic Weather in Mendrisio — Graph

°F

Mendrisio temperature yesterday

Maximum temperature yesterday: 67 °F (at 3:00 PM)
Minimum temperature yesterday: 54 °F (at 3:00 AM)
Average temperature yesterday: 60 °F

Past Weeks' High & Low Weather Summary

 TemperatureHumidityPressure
High73 °F (Oct 17, 4:00 PM)100% (Oct 20, 4:00 AM)30.32 "Hg (Oct 20, 4:00 AM)
Low50 °F (Oct 7, 12:00 AM)55% (Oct 17, 3:00 PM)29.78 "Hg (Oct 15, 4:00 PM)
Average60 °F91%30.03 "Hg
* Reported Oct 6 1:00 AM — Oct 21 1:00 AM, Mendrisio, Weather by CustomWeather, © 2014

Note: Actual official high and low records may vary slightly from our data, if they occured in-between our weather recording intervals... More about our weather records

Advertising

Mendrisio weather history for previous 24 hours

 ConditionsComfort  
Time TempWeatherWind HumidityBarometerVisibility
1:00 AM
Oct 21
59 °FCool.No wind95%30.03 "HgN/A
12:00 AM58 °FCool.1 mph97%30.06 "HgN/A
11:00 PM
Oct 20
58 °FCool.2 mph96%30.08 "HgN/A
10:00 PM57 °FCool.2 mph94%30.09 "HgN/A
9:00 PM57 °FCool.1 mph96%30.09 "HgN/A
8:00 PM58 °FCool.1 mph96%30.10 "HgN/A
7:00 PM59 °FCool.1 mph95%30.09 "HgN/A
6:00 PM64 °FMild.No wind88%30.09 "HgN/A
5:00 PM67 °FMild.5 mph72%30.09 "HgN/A
4:00 PM67 °FMild.6 mph77%30.10 "HgN/A
3:00 PM67 °FMild.5 mph71%30.12 "HgN/A
2:00 PM67 °FMild.1 mph79%30.15 "HgN/A
1:00 PM66 °FMild.1 mph80%30.18 "HgN/A
12:00 PM65 °FMild.3 mph78%30.19 "HgN/A
11:00 AM62 °FCool.1 mph89%30.21 "HgN/A
10:00 AM60 °FCool.1 mph95%30.22 "HgN/A
9:00 AM57 °FCool.No wind98%30.22 "HgN/A
8:00 AM54 °FCool.No wind99%30.22 "HgN/A
7:00 AM54 °FCool.No wind100%30.22 "HgN/A
5:00 AM55 °FCool.No wind100%30.22 "HgN/A
4:00 AM55 °FCool.No wind100%30.24 "HgN/A
3:00 AM54 °FCool.1 mph99%30.25 "HgN/A
2:00 AM54 °FCool.1 mph98%30.26 "HgN/A
Weather by CustomWeather, © 2014

See weather overviewHow to use our weather pages